sat.trackr.live / text

‹ back to catalog

STARLINK-32543

NORAD 63364 · 2025-063B

PAYLOAD ACTIVE UNKNOWN

§ Identity

Operator
Country
US
Launch date
2025-03-26
Launch site
AFWTR
Launch vehicle
Mass (kg)
RCS (m²)

Purposes: comms

External: N2YO · Heavens-Above · Gunter

§ Orbital elements

Epoch: 2026-05-25T03:10:09.140736Z

Period
94.10 min
Inclination
53.1609°
Eccentricity
0.0000842
Mean motion
15.30215117 rev/d
Perigee alt
474.6 km
Apogee alt
475.7 km
Semi-major
6,853.3 km
B*
7.0290e-4
RAAN
54.5276°
Arg perigee
113.5494°
Mean anomaly
246.5595°
Rev number
6,649

§ Raw data

STARLINK-325431 63364U 25063B   26145.13205024  .00020526  00000+0  70290-3 0  99982 63364  53.1609  54.5276 0000842 113.5494 246.5595 15.30215117 66495

JSON: /api/v1/satellites/63364 · /tle

For live sub-satellite position, see the globe view (requires WebGL).

§ Visibility from observer

Set your observer location to see the next 7 days of passes ≥ 10°. The values pass through the URL so the page stays shareable.

No JS? Fill the form by hand. The geolocation button needs JavaScript.